Location: Unspecified
(54.8508°N, 0.0000°E)
Time: 19:32:41
(UTC+00:00)

NINGXIA-1 9 - Visible Passes

Search period start: 04 April 2026 00:00
Search period end: 14 April 2026 00:00
Orbit: 858 x 871 km, 45.0° (Epoch: 28 March)

Date Brightness Start Highest point End Pass type
(mag) Time Alt. Az. Time Alt. Az. Time Alt. Az.
4 Apr ? 02:57:36 10° SE 02:58:11 10° SE 02:58:47 10° SE visible
4 Apr ? 04:39:32 10° SSW 04:44:13 24° SSE 04:48:54 10° ESE visible
5 Apr ? 02:46:37 10° SSE 02:48:30 12° SE 02:50:31 10° ESE visible
5 Apr ? 04:29:48 10° SW 04:34:36 26° SSE 04:39:25 10° ESE visible
6 Apr ? 02:37:28 12° SSE 02:38:49 13° SE 02:41:31 10° ESE visible
6 Apr ? 04:20:05 10° SW 04:25:00 27° SSE 04:29:54 10° ESE visible
7 Apr ? 02:28:17 15° SSE 02:29:09 15° SSE 02:32:21 10° ESE visible
7 Apr ? 04:10:29 10° SW 04:15:23 28° SSE 04:20:23 10° ESE visible
8 Apr ? 02:19:04 16° SSE 02:19:30 17° SSE 02:23:05 10° ESE visible
8 Apr ? 04:01:16 12° SW 04:05:47 30° SSE 04:10:50 10° ESE visible
9 Apr ? 02:09:49 18° SSE 02:09:50 18° SSE 02:13:44 10° ESE visible
9 Apr ? 03:52:01 14° SW 03:56:11 30° S 04:01:18 10° ESE visible
10 Apr ? 02:00:33 20° SSE 02:00:33 20° SSE 02:04:21 10° ESE visible
10 Apr ? 03:42:45 16° SW 03:46:35 31° S 03:51:45 10° ESE visible
11 Apr ? 01:51:16 21° SE 01:51:16 21° SE 01:54:55 10° ESE visible
11 Apr ? 03:33:28 18° SW 03:37:00 32° S 03:42:11 10° ESE visible
12 Apr ? 01:41:58 22° SE 01:41:58 22° SE 01:45:28 10° ESE visible
12 Apr ? 03:24:10 19° SW 03:27:23 32° S 03:32:36 10° ESE visible
13 Apr ? 01:32:41 22° SE 01:32:41 22° SE 01:35:59 10° ESE visible
13 Apr ? 03:14:51 21° SW 03:17:48 32° S 03:23:01 10° ESE visible
